Regional Weather Roundup
Issued by NWS

Home | Current Version | Previous Version | Graphics & Text | Print | Product List | Glossary On
Versions: 1 2 3 4 5 6 7 8 9 10 11 12 13 14 15 16 17 18 19 20 21 22 23 24 25 26 27 28 29 30 31 32 33 34 35 36 37 38 39 40 41 42 43 44 45 46 47 48 49 50
342
ASUS43 KTOP 300559
RWRKS

WEATHER ROUNDUP FOR KANSAS
NATIONAL WEATHER SERVICE GOODLAND KS
100 AM CDT MON MAY 30 2016

NOTE:  "FAIR" INDICATES FEW OR NO CLOUDS BELOW 12,000 FEET WITH NO
SIGNIFICANT WEATHER AND/OR OBSTRUCTIONS TO VISIBILITY.

KSZ001>006-013>018-027>032-041>047-300700-
NORTHWEST KANSAS

CITY           SKY/WX    TMP DP  RH WIND       PRES   REMARKS
GOODLAND       LGT RAIN  57  52  83 E9        30.14R
6HR MIN TEMP:  56; 6HR MAX TEMP:  66; 6HR PCP:  0.02;

HAYS           CLOUDY    61  52  72 CALM      30.04F
HILL CITY      CLOUDY    63  53  70 SE8       30.03F
6HR MIN TEMP:  63; 6HR MAX TEMP:  73; 6HR PCP: TRACE;

$$

KSZ061>065-074>080-084>089-300700-
SOUTHWEST KANSAS

CITY           SKY/WX    TMP DP  RH WIND       PRES   REMARKS
DODGE CITY     MOCLDY    59  50  72 SW10      30.07F
6HR MIN TEMP:  56; 6HR MAX TEMP:  71;

ELKHART          N/A     57  49  75 S8          N/A
GARDEN CITY    PTCLDY    56  50  80 SW7       30.09F
6HR MIN TEMP:  56; 6HR MAX TEMP:  70;

GREAT BEND     PTCLDY    64  55  72 CALM      30.05S
LIBERAL        CLOUDY    55  46  71 N6        30.10S
$$

KSZ066>073-081>083-090>101-300700-
SOUTHEAST KANSAS

CITY           SKY/WX    TMP DP  RH WIND       PRES   REMARKS
CHANUTE        CLOUDY    67  65  93 CALM      30.06S FOG
6HR MIN TEMP:  66; 6HR MAX TEMP:  79;

COFFEYVILLE    CLOUDY    66  64  93 E3        30.05F
6HR MIN TEMP:  65; 6HR MAX TEMP:  76;

HUTCHINSON     CLOUDY    66  58  75 E3        30.05F
6HR MIN TEMP:  63; 6HR MAX TEMP:  77;

MEDICINE LODGE   N/A     63  58  83 CALM      30.02F
NEWTON         CLOUDY    63  55  77 E5        30.08F
PARSONS        PTCLDY    65  64  97 E3        30.07S
6HR MIN TEMP:  64; 6HR MAX TEMP:  77;

WICHITA INTL   MOCLDY    65  59  81 S3        30.04F
6HR MIN TEMP:  64; 6HR MAX TEMP:  76;

WICHITA JABRA  CLOUDY    62  60  93 CALM      30.05F
6HR MIN TEMP:  61; 6HR MAX TEMP:  75;

WINFIELD       MOCLDY    68  62  81 S5        30.05F
6HR MIN TEMP:  67; 6HR MAX TEMP:  77;

$$

KSZ007>012-019>026-033>040-048>060-102>105-300700-
NORTHEAST KANSAS

CITY           SKY/WX    TMP DP  RH WIND       PRES   REMARKS
CONCORDIA      PTCLDY    64  60  87 E5        30.05F
6HR MIN TEMP:  64; 6HR MAX TEMP:  71;

EMPORIA        PTCLDY    65  63  93 S7        30.06F
6HR MIN TEMP:  64; 6HR MAX TEMP:  77;

LAWRENCE       CLEAR     63  61  93 CALM      30.06R
6HR MIN TEMP:  63; 6HR MAX TEMP:  79;

MANHATTAN      PTCLDY    64  61  90 CALM      30.06F
6HR MIN TEMP:  62; 6HR MAX TEMP:  72;

OLATHE IND     PTCLDY    66  61  84 S5        30.07R
6HR MIN TEMP:  65; 6HR MAX TEMP:  79;

OLATHE EXE     PTCLDY    67  59  75 SW3       30.07R
6HR MIN TEMP:  67; 6HR MAX TEMP:  79;

SALINA         CLOUDY    67  61  81 SE6       30.05F
6HR MIN TEMP:  65; 6HR MAX TEMP:  76; 6HR PCP: TRACE;

TOPEKA BILLARD CLOUDY    67  65  93 CALM      30.06R
6HR MIN TEMP:  67; 6HR MAX TEMP:  80;

TOPEKA FORBES  CLOUDY    66  64  93 CALM      30.06S
6HR MIN TEMP:  66; 6HR MAX TEMP:  81;

$$




USA.gov is the U.S. government's official web portal to all federal, state and local government web resources and services.